GFSGL_sfc_dewp_003.txt.gz
Dewpoint
21 22 21 21 20 19 18 16 15 13 13 13 13 14 14 15 15 15 15 16 17 17 16 15 14 14 14 14 15 15 15 16 15 14 13 14 13 12 14 16 17 17 18
21 22 21 20 19 17 15 13 13 11 12 12 13 13 13 13 13 13 14 16 15 12 10 10 9 8 11 9 10 10 10 11 11 10 10 10 10 10 11 12 11 11 14
22 21 19 19 17 15 12 11 11 12 12 12 11 11 11 11 11 11 10 8 8 7 6 6 5 7 10 11 10 9 9 8 10 10 9 9 8 9 10 11 12 13 14
21 20 19 17 16 13 10 10 10 10 10 11 11 10 9 8 7 7 6 6 6 5 5 7 8 8 10 11 11 11 12 11 11 10 9 8 9 10 11 11 10 13 14
20 19 18 17 14 10 11 13 12 12 10 10 9 8 7 6 5 6 5 9 7 8 10 9 10 11 13 14 14 15 15 15 14 13 13 13 13 12 12 14 12 13 15
20 19 17 15 13 13 14 13 11 12 12 11 10 9 7 4 13 17 10 10 13 11 10 9 8 11 12 15 17 18 17 16 16 16 16 15 13 10 10 11 12 14 14
22 21 17 15 13 13 12 11 10 10 10 10 9 9 9 10 17 18 18 15 14 12 10 8 8 8 12 11 15 18 18 19 19 16 17 15 15 14 13 12 12 12 12
22 21 16 14 13 12 11 10 10 10 10 10 10 10 12 12 18 19 18 15 14 13 10 10 10 11 12 13 13 16 17 17 17 17 16 16 16 17 17 14 13 13 14
20 18 15 14 14 11 11 10 10 10 11 11 12 11 12 12 18 18 17 16 15 14 11 11 11 12 15 17 16 18 16 15 17 18 18 20 21 21 21 20 20 17 14
19 17 14 14 13 11 11 10 11 11 11 11 11 10 11 8 15 17 18 17 11 13 14 11 17 14 16 18 20 18 14 12 12 17 18 17 14 14 17 15 17 18 17
17 15 13 12 13 12 11 10 10 10 11 11 10 10 9 8 10 17 18 16 13 12 15 14 14 15 17 19 18 15 12 15 16 7 8 9 10 11 13 18 21 17 16
14 12 12 13 12 10 9 9 9 9 9 8 8 9 10 11 13 16 16 16 16 13 10 14 13 17 16 17 15 15 16 14 6 6 6 7 7 8 11 13 15 20 23
13 13 12 10 9 8 7 6 6 7 6 6 7 8 10 11 10 14 15 13 14 15 15 13 15 13 14 11 11 13 10 5 6 5 4 6 8 8 10 11 12 14 16
10 10 9 7 7 7 6 5 5 5 6 7 8 8 8 8 8 8 9 11 15 14 11 3 6 8 8 7 4 4 4 4 5 5 4 6 8 8 8 10 10 14 15
13 10 9 7 6 5 5 5 5 7 8 9 10 9 8 7 7 10 12 12 13 12 -4 -7 -5 -0 0 0 1 2 3 3 3 4 4 5 8 7 7 8 10 11 10
11 8 7 5 5 4 3 5 11 12 14 14 16 12 10 11 15 16 14 14 10 10 -7 -13 -8 -3 -2 -1 -1 0 1 2 2 3 3 7 6 8 9 9 7 7 8
11 8 6 5 4 4 3 6 8 14 18 18 17 16 14 14 14 13 14 10 8 1 -14 -17 -12 -8 -5 -2 -2 -1 -1 1 3 3 3 6 9 10 7 6 5 6 5
12 8 6 5 4 2 4 6 8 10 10 11 15 15 15 15 14 14 12 4 -6 -8 -21 -22 -20 -14 -7 -5 -4 -2 -1 -0 0 1 2 6 10 9 6 5 5 5 4
10 7 5 4 4 4 5 8 8 8 8 7 10 12 13 14 14 14 4 -5 -12 -17 -21 -24 -21 -15 -9 -8 -6 -4 -3 -1 -0 1 3 5 9 8 6 5 5 5 6
10 8 6 5 4 4 5 6 6 5 4 3 5 1 1 1 -4 -8 -8 -11 -16 -20 -19 -24 -19 -18 -14 -11 -8 -6 -4 -3 -1 2 3 8 8 8 6 5 5 4 4
10 8 8 7 7 7 6 5 5 3 2 1 1 1 5 -3 -8 -10 -12 -16 -19 -21 -23 -24 -20 -21 -16 -12 -10 -7 -6 -3 -1 3 3 8 7 6 6 6 5 5 5
8 7 6 5 5 5 5 4 4 2 1 -1 -1 5 8 -7 -9 -11 -12 -16 -20 -21 -25 -23 -23 -23 -16 -13 -10 -7 -6 -4 0 3 4 6 6 6 6 5 4 5 4
5 5 4 4 4 3 2 2 0 -1 -2 -3 -2 -3 -8 -10 -13 -14 -16 -21 -20 -22 -24 -24 -22 -21 -17 -14 -11 -9 -6 -4 1 5 8 5 4 5 5 4 4 4 3
3 3 2 1 1 0 -1 -2 -3 -4 -6 -7 -8 -9 -11 -14 -17 -17 -19 -21 -22 -30 -27 -25 -22 -23 -19 -16 -14 -10 -7 -3 3 8 7 5 3 2 5 4 4 4 3
2 0 -0 -2 -2 -3 -4 -5 -7 -8 -10 -11 -12 -13 -14 -15 -17 -22 -23 -23 -28 -28 -25 -24 -23 -22 -21 -20 -18 -15 -9 -2 5 11 8 5 2 1 4 4 4 3 3
-1 -2 -3 -3 -4 -5 -7 -9 -10 -11 -12 -13 -13 -14 -15 -16 -18 -21 -24 -27 -25 -25 -26 -24 -25 -24 -22 -19 -16 -7 -2 7 12 9 8 5 2 1 2 3 3 3 3

GFSGL_sfc_dewp_006.txt.gz
Dewpoint
22 22 22 22 21 20 19 19 20 18 17 17 17 16 16 16 16 16 17 18 18 18 16 16 16 16 15 15 14 14 13 15 12 9 10 10 10 11 11 11 12 10 11
22 22 22 22 21 20 19 18 18 16 16 15 15 14 14 14 15 15 16 17 16 15 14 13 12 12 13 11 10 10 9 10 11 9 9 9 9 10 10 10 9 8 10
23 22 22 21 20 20 19 17 16 15 14 14 13 13 13 13 13 14 14 13 13 12 11 10 9 10 12 11 9 9 9 9 10 10 9 9 9 10 10 11 11 13 12
23 22 21 21 20 20 19 16 15 14 13 12 12 11 11 11 11 11 10 10 9 8 8 8 7 8 12 13 12 12 12 11 11 11 10 9 10 10 13 13 13 15 15
22 22 21 21 20 20 18 17 16 15 11 11 11 11 10 9 8 8 7 11 9 7 7 8 10 12 13 14 13 12 12 12 12 12 11 12 12 12 12 13 12 13 14
23 22 21 21 21 20 19 17 16 14 13 13 12 11 9 6 16 18 11 12 11 7 10 11 10 13 13 16 18 18 18 17 16 15 16 15 11 12 13 14 14 12 10
25 25 23 22 20 18 17 16 14 13 13 12 11 10 9 8 18 20 17 12 14 12 11 9 9 8 11 9 13 17 18 19 19 16 17 16 14 13 13 13 13 12 11
26 25 22 20 19 17 16 15 14 13 13 11 11 10 10 9 20 23 21 17 16 14 11 11 9 9 11 11 12 15 15 16 17 18 19 18 19 20 18 21 21 20 20
24 24 22 20 19 16 16 15 14 14 13 13 13 12 12 11 21 23 22 17 16 15 12 11 11 11 14 17 16 15 16 18 19 20 19 19 21 22 18 14 12 11 9
23 22 21 20 19 17 16 15 15 15 14 12 13 13 13 12 22 23 22 16 15 15 14 11 17 14 17 18 16 17 17 16 14 13 18 12 12 11 15 12 11 9 10
20 18 17 17 17 16 16 15 15 14 13 13 12 12 13 12 18 22 22 16 14 13 13 13 14 16 16 17 19 16 15 15 16 9 7 7 7 8 9 10 11 11 11
17 15 15 15 16 16 13 13 13 13 12 11 10 9 11 11 14 20 21 20 18 12 13 15 15 14 16 17 16 16 16 15 5 4 4 5 6 6 7 9 10 11 11
17 17 16 13 14 14 13 12 11 11 10 8 8 8 8 10 10 19 21 21 19 16 15 15 15 13 12 12 11 13 12 6 4 3 3 4 5 6 7 8 10 10 10
18 16 15 13 13 13 12 11 11 10 9 8 8 8 8 10 11 15 17 17 18 16 14 6 6 7 6 7 4 4 4 4 4 3 4 4 5 5 5 7 7 8 9
18 16 14 14 12 12 12 11 11 10 11 10 10 9 10 9 10 15 14 12 13 13 -3 -5 -3 0 0 1 2 2 3 3 3 3 3 3 4 4 4 6 9 10 8
17 15 13 12 11 11 11 11 19 17 18 16 15 13 12 11 15 18 18 17 17 16 -8 -11 -5 -2 -2 -1 -1 -1 0 1 2 2 2 2 3 3 3 5 10 8 6
20 17 14 12 10 10 9 8 8 14 17 17 17 18 17 17 19 20 21 20 19 8 -9 -11 -10 -5 -5 -4 -3 -2 -2 -1 1 1 1 1 2 3 3 6 7 7 5
20 18 14 11 10 10 9 9 10 10 12 15 20 18 18 20 22 21 20 16 6 -2 -13 -15 -14 -12 -9 -7 -5 -5 -4 -3 -2 -1 -0 -0 1 3 3 6 6 5 5
19 18 13 11 10 10 10 11 12 13 13 13 15 17 20 23 21 20 16 -1 -5 -8 -13 -13 -14 -12 -10 -10 -10 -11 -10 -7 -5 -4 -2 -1 1 2 5 6 6 6 6
20 18 13 10 9 8 10 11 12 13 13 11 12 13 17 17 8 1 -4 -7 -7 -10 -10 -13 -14 -17 -16 -17 -16 -16 -12 -10 -7 -4 -2 -0 2 2 5 4 5 5 4
17 14 10 10 9 9 10 10 11 11 10 11 9 9 14 7 -0 -4 -8 -8 -10 -10 -12 -14 -17 -19 -19 -20 -21 -21 -15 -10 -8 -4 -2 -0 1 5 4 3 4 5 5
12 9 9 8 9 8 9 10 8 8 8 3 5 12 15 1 -3 -7 -8 -9 -11 -13 -15 -18 -19 -20 -19 -21 -23 -18 -14 -12 -9 -5 -2 -1 2 4 3 2 2 5 4
9 8 8 8 8 8 8 7 6 6 4 4 6 8 -1 -4 -7 -7 -9 -13 -13 -14 -16 -19 -19 -19 -19 -21 -20 -15 -15 -13 -9 -5 -3 -0 5 4 3 1 1 3 4
7 6 5 5 6 6 5 4 4 4 4 3 2 -2 -5 -8 -9 -11 -13 -14 -16 -19 -21 -21 -21 -21 -21 -21 -22 -19 -16 -13 -9 -4 -1 4 5 4 2 -0 -0 2 3
3 3 3 2 2 1 1 1 1 1 -0 -2 -4 -8 -10 -12 -13 -13 -15 -16 -18 -20 -20 -21 -21 -22 -23 -23 -23 -22 -17 -10 -7 0 8 4 5 4 1 -1 -0 1 2
0 0 -0 -0 -1 -1 -2 -3 -4 -3 -4 -6 -9 -11 -12 -13 -14 -15 -17 -18 -19 -20 -21 -22 -23 -24 -24 -21 -20 -14 -7 3 5 10 8 4 6 3 -0 -1 -1 -0 1

GFSGL_sfc_dewp_009.txt.gz
Dewpoint
24 24 24 24 22 21 21 21 22 21 21 20 20 19 19 19 18 17 17 18 18 19 19 19 19 19 18 17 17 17 16 17 14 11 11 11 10 11 11 12 13 11 11
24 24 24 23 23 21 20 20 21 21 20 20 19 18 17 17 17 16 17 18 18 17 17 17 15 16 15 14 13 13 13 13 12 10 9 9 10 11 11 12 10 10 12
24 23 23 22 22 21 20 19 20 20 19 19 18 17 16 15 15 15 14 16 16 15 15 14 13 14 14 12 10 10 11 9 11 10 10 11 11 11 12 14 14 16 14
24 23 22 22 22 22 21 20 19 19 18 17 17 16 15 14 13 13 13 14 14 13 13 12 11 11 13 13 13 13 13 13 12 11 11 11 12 13 15 14 13 15 15
24 23 22 22 22 22 22 22 20 19 17 16 15 14 13 13 12 12 12 14 12 10 10 8 9 11 14 16 14 13 13 11 11 11 12 13 14 13 12 14 14 14 15
24 24 23 24 23 24 24 22 20 19 18 17 15 15 13 11 19 20 14 13 12 7 7 8 10 15 15 18 19 20 16 10 9 11 15 15 13 14 14 13 13 13 13
27 27 26 24 24 23 23 21 20 19 17 16 15 14 13 12 21 22 19 13 11 7 8 10 10 10 13 12 18 19 20 20 20 18 16 15 14 14 16 16 16 16 17
28 28 26 25 24 23 21 20 19 18 17 16 15 15 14 12 22 23 20 14 12 10 10 11 10 10 11 11 10 14 15 15 15 14 15 15 18 19 17 19 19 13 12
24 25 25 24 24 21 21 20 19 19 18 18 18 17 16 14 22 24 21 16 15 14 11 11 11 11 14 18 15 13 15 17 18 20 21 21 21 21 20 14 9 8 7
22 23 22 21 21 22 21 20 20 20 18 17 17 17 16 15 22 24 22 17 16 15 14 11 17 13 16 19 17 12 10 15 18 13 15 17 14 12 14 12 9 7 7
20 19 17 18 18 18 21 20 19 18 17 17 17 16 16 15 19 25 26 17 15 15 14 13 13 19 19 20 19 18 18 17 14 8 8 7 6 7 9 9 10 9 8
22 17 16 14 17 17 16 14 17 17 16 15 14 13 13 14 19 25 26 22 20 14 14 13 15 19 19 18 19 17 17 16 1 -1 1 3 5 6 7 8 9 9 9
29 25 20 19 17 19 17 16 15 15 13 13 12 11 11 12 16 24 25 25 22 15 14 17 19 19 18 15 13 12 13 6 1 -3 1 3 5 6 7 7 8 8 8
24 26 21 18 17 17 17 15 15 14 13 12 11 11 11 12 14 20 22 23 20 17 17 18 17 14 11 9 7 5 4 6 5 4 4 4 5 5 4 5 5 6 6
18 22 22 18 17 16 16 16 16 17 17 14 14 14 12 10 12 19 21 22 20 18 10 8 4 3 2 2 3 3 3 4 4 4 3 3 3 4 4 4 4 4 4
11 15 21 18 16 15 15 14 21 22 22 24 23 20 16 16 19 22 25 25 23 20 7 4 2 2 1 1 1 0 1 2 2 2 2 2 2 2 2 2 3 3 3
8 11 17 19 17 14 13 13 12 18 23 23 25 24 21 19 21 23 24 24 23 19 6 4 2 1 0 -1 -1 -1 -1 -0 1 1 0 0 1 1 0 1 2 2 3
7 10 13 19 16 15 14 13 13 14 15 16 24 23 23 23 23 24 23 22 19 9 4 1 -1 -3 -3 -3 -3 -4 -4 -3 -4 -2 -3 -4 -3 -2 -1 -0 1 1 3
7 9 12 18 18 15 14 13 12 13 14 15 18 23 22 24 25 24 23 15 5 1 -0 -2 -3 -5 -5 -6 -7 -9 -12 -12 -9 -9 -12 -8 -4 -3 -1 0 1 3 2
6 8 11 15 15 13 12 11 11 12 13 15 16 17 18 21 20 20 11 6 3 1 -3 -4 -7 -8 -10 -11 -14 -17 -19 -18 -13 -13 -12 -7 -5 -2 -0 -0 2 2 1
4 9 13 18 12 11 11 11 11 12 13 14 15 16 20 19 17 4 3 3 1 -2 -5 -7 -9 -12 -16 -17 -19 -22 -20 -15 -12 -15 -11 -7 -5 -4 -1 0 4 2 1
9 11 14 11 10 10 11 12 12 13 14 13 14 18 23 8 5 2 1 -1 -3 -5 -7 -9 -12 -14 -16 -17 -18 -18 -18 -16 -16 -16 -12 -6 -5 -4 -1 3 3 1 -1
9 9 9 9 9 10 11 11 11 12 11 11 12 13 6 3 1 -1 -3 -7 -8 -10 -12 -14 -15 -16 -17 -19 -17 -16 -17 -16 -16 -18 -12 -9 -6 -3 1 3 2 -1 -3
5 6 6 7 8 8 7 7 9 6 8 10 6 3 1 -0 -2 -4 -7 -9 -10 -13 -14 -16 -16 -18 -20 -21 -20 -20 -19 -18 -18 -16 -12 -9 -6 0 4 3 0 -3 -3
3 4 4 4 4 4 4 4 4 5 5 1 -1 -2 -3 -4 -5 -8 -10 -10 -12 -15 -16 -17 -17 -18 -20 -20 -21 -21 -20 -13 -16 -13 -8 -2 4 1 3 1 -2 -4 -5
-0 -0 0 1 1 1 2 2 1 -0 -1 -2 -3 -4 -5 -6 -9 -10 -12 -14 -15 -15 -16 -16 -17 -19 -19 -19 -19 -15 -11 -2 -1 4 9 9 -0 2 3 -2 -5 -5 -6

GFSGL_sfc_dewp_012.txt.gz
Dewpoint
25 26 25 25 24 24 23 23 23 23 22 22 21 20 19 20 20 20 19 19 19 19 18 19 19 21 21 21 21 20 20 18 15 14 12 11 10 11 11 13 14 12 13
25 25 25 25 24 23 23 22 23 22 22 21 20 20 19 18 19 19 19 19 19 18 18 18 18 20 19 18 17 16 16 17 15 13 11 10 10 11 12 12 12 12 13
26 25 25 24 24 23 22 22 22 22 22 21 20 19 18 18 18 17 17 17 16 15 16 17 17 18 17 15 14 13 13 11 13 12 11 12 12 13 13 14 16 17 15
27 25 24 24 24 24 24 22 22 22 21 21 20 19 18 17 16 16 15 16 15 15 16 16 15 15 16 14 13 13 13 13 12 12 12 12 13 14 16 15 15 16 15
28 28 26 25 24 24 25 25 23 22 21 20 20 19 18 17 16 15 14 17 16 14 14 14 13 14 18 16 13 13 13 12 12 12 12 14 15 14 14 15 14 16 16
28 28 28 28 26 25 25 25 23 22 22 21 20 20 18 15 22 23 17 16 16 12 12 11 11 15 17 20 20 19 16 9 4 8 14 15 15 15 14 14 15 15 14
29 28 28 27 27 26 24 24 23 22 22 20 20 19 18 17 23 25 24 16 15 10 9 9 9 11 14 16 21 20 20 22 18 15 17 17 15 14 15 17 18 18 16
28 27 27 26 25 25 23 24 23 22 21 21 20 19 18 17 23 27 26 16 15 10 8 8 9 11 13 15 17 20 19 19 18 16 16 15 15 16 20 20 19 14 11
28 28 27 26 24 24 24 23 23 22 22 22 22 21 20 20 23 28 26 18 16 12 8 9 10 11 17 19 14 14 16 16 17 20 21 22 21 20 19 14 5 2 5
24 26 26 25 22 22 22 22 23 23 23 21 22 22 21 21 22 28 27 18 16 14 12 10 17 12 18 21 14 13 12 15 17 15 18 17 16 13 14 12 9 -2 5
21 21 26 26 23 21 20 18 18 21 21 21 19 21 20 20 20 27 28 19 16 16 15 16 14 18 19 22 21 16 15 17 17 13 11 10 8 7 8 9 9 10 7
17 19 20 22 24 22 18 17 15 18 19 17 14 15 17 17 19 26 28 22 21 17 17 15 14 20 20 22 22 21 21 17 6 4 1 3 5 6 7 8 8 9 10
13 13 14 17 22 21 21 19 18 18 16 15 15 14 14 15 16 22 28 27 21 17 16 16 18 21 22 22 23 22 17 9 4 2 1 3 4 5 6 7 7 8 8
8 8 10 11 15 21 20 20 19 18 17 17 14 14 13 13 15 17 25 28 23 19 20 19 20 22 23 17 19 17 10 7 5 4 5 4 5 5 6 6 6 5 4
4 5 6 8 11 17 20 19 18 20 20 18 18 18 16 14 15 20 25 26 23 18 19 19 19 16 14 10 8 7 6 5 5 5 5 4 4 4 4 5 5 3 1
0 1 4 6 8 11 18 18 21 23 23 25 25 22 20 21 22 25 28 29 25 23 17 15 13 11 10 8 6 4 4 5 4 4 4 3 2 2 3 3 3 1 0
-2 -0 2 5 6 9 14 16 15 17 23 25 26 26 25 21 24 25 27 30 27 24 15 12 10 9 9 8 6 4 3 4 3 2 1 1 1 1 0 -0 0 1 0
-2 0 2 4 6 8 11 15 15 15 14 18 24 25 27 25 25 25 27 29 25 21 12 10 8 8 7 5 4 3 2 1 -0 -0 -1 -2 -4 -5 -5 -4 -2 -2 -1
-2 -1 2 3 4 7 10 14 15 14 14 16 18 22 25 26 23 25 27 23 20 8 9 9 7 6 4 3 2 0 -1 -3 -5 -6 -8 -10 -10 -10 -7 -4 -2 -1 0
-2 0 -0 1 4 6 8 13 13 13 13 15 15 18 21 22 19 21 23 23 12 9 8 5 4 2 1 -1 -3 -6 -8 -9 -10 -11 -11 -11 -9 -9 -5 -4 -3 -2 -2
-2 -1 -0 1 3 7 10 12 12 12 12 13 15 19 22 17 17 19 21 12 9 5 5 2 -0 -2 -4 -6 -9 -9 -11 -9 -10 -13 -13 -15 -13 -9 -7 -4 -3 -2 1
1 2 3 5 7 11 12 12 11 11 12 13 15 18 23 18 15 8 9 7 5 3 2 -0 -3 -6 -8 -10 -9 -11 -12 -12 -15 -16 -19 -17 -11 -8 -8 -5 -3 -0 2
4 5 7 8 9 10 10 11 11 12 12 14 15 15 12 7 6 3 -1 -2 -2 -4 -4 -5 -7 -10 -11 -11 -12 -11 -11 -13 -15 -18 -18 -16 -12 -11 -8 -5 -2 1 1
2 3 4 6 7 5 6 7 8 10 11 10 4 3 2 2 -1 -3 -3 -4 -5 -8 -8 -9 -9 -10 -13 -16 -15 -17 -19 -19 -19 -19 -20 -16 -12 -10 -7 -3 1 1 -0
0 1 1 2 4 4 4 5 5 2 2 1 -0 -1 -1 -2 -4 -5 -5 -6 -8 -10 -12 -12 -12 -14 -15 -17 -17 -20 -19 -10 -11 -14 -17 -11 -12 -9 -3 -1 1 0 -3
-2 -1 -1 -0 -0 1 1 0 -0 -1 -2 -2 -1 -2 -2 -4 -5 -6 -7 -9 -10 -11 -12 -12 -14 -16 -16 -16 -18 -15 -14 -5 -10 -11 -11 -6 -1 4 -3 -1 -0 -3 -6

GFSGL_sfc_dewp_015.txt.gz
Dewpoint
29 28 27 27 27 27 26 26 26 26 25 25 24 24 22 22 21 21 20 21 21 22 20 20 20 22 22 22 22 21 19 17 18 12 10 11 10 9 10 13 14 13 14
29 29 28 27 26 26 25 25 25 25 25 24 23 23 22 21 21 20 21 22 22 20 18 19 18 21 21 21 21 20 19 18 16 17 10 8 8 9 11 13 13 13 14
29 29 28 28 26 26 25 25 25 25 24 24 23 22 21 20 20 20 18 19 19 18 18 17 17 21 22 21 20 19 19 17 15 13 11 10 10 12 13 14 15 16 15
29 28 28 28 28 27 26 26 25 24 24 24 23 22 21 20 19 19 17 18 18 17 17 16 17 18 20 21 20 20 19 18 15 11 10 9 10 12 15 15 15 16 15
28 28 28 29 28 28 28 28 27 26 24 24 23 22 21 20 18 18 17 20 19 16 16 15 16 17 21 21 19 19 18 17 15 13 10 12 13 14 14 15 14 16 18
27 28 28 29 28 27 28 28 27 26 25 25 24 23 22 19 24 27 20 19 19 14 15 15 15 20 21 24 22 21 18 16 14 14 11 11 13 15 15 14 15 16 15
25 26 27 28 26 25 27 26 26 26 26 24 24 23 23 22 26 29 28 19 19 15 13 13 13 15 19 19 23 22 21 20 17 13 16 15 15 15 15 16 17 17 16
22 22 23 22 20 25 26 26 25 25 25 24 24 24 23 22 26 29 28 21 19 17 14 13 12 13 16 18 18 20 19 19 17 15 16 18 16 16 17 20 20 18 13
18 18 18 19 19 24 24 24 24 25 25 25 25 25 24 24 26 28 29 26 20 19 13 12 12 12 18 22 20 21 20 19 21 23 23 21 20 23 23 19 15 12 10
16 15 15 17 20 18 19 22 24 24 24 24 24 25 24 24 25 26 29 27 23 19 16 11 17 13 20 24 22 22 20 21 21 23 20 21 23 19 18 16 14 10 9
15 13 13 14 15 15 17 20 22 22 23 23 22 23 23 24 24 26 27 27 23 22 19 13 12 19 22 26 25 21 21 21 21 19 19 17 15 13 10 9 11 11 10
12 10 10 10 11 12 12 15 20 21 20 22 22 21 21 22 23 24 26 30 27 22 20 16 15 21 23 26 25 22 23 21 19 17 15 14 12 9 8 8 9 9 10
9 7 6 7 7 8 10 12 15 20 20 20 20 19 19 19 21 24 26 28 29 24 22 18 19 20 23 27 27 23 22 18 16 13 12 11 7 7 7 8 7 8 7
4 4 4 4 4 5 7 10 13 18 19 19 19 19 19 18 18 19 22 25 31 26 20 20 21 23 25 25 26 23 18 16 14 13 11 8 7 7 7 7 7 7 6
2 2 1 2 2 3 6 9 11 15 20 19 20 20 19 18 18 22 23 24 27 25 21 21 21 23 22 22 20 16 14 12 12 11 9 8 7 6 6 6 6 6 4
-1 -2 -2 -1 -1 0 2 4 11 15 18 23 25 24 21 22 24 25 26 27 30 25 19 18 19 21 17 17 14 12 12 10 11 9 8 8 6 6 5 5 5 4 3
-4 -4 -3 -3 -2 -1 1 3 4 7 15 20 22 24 27 26 24 26 27 28 31 26 18 18 18 18 16 15 13 10 9 10 10 8 7 6 5 4 3 3 3 2 2
-5 -4 -4 -3 -3 -1 0 2 4 6 8 13 18 20 24 26 27 26 27 28 27 24 19 18 17 16 13 11 10 10 9 8 7 6 5 4 3 2 1 1 1 0 1
-5 -5 -4 -3 -2 -1 1 1 2 4 7 10 15 18 20 28 27 26 27 24 24 20 18 16 14 14 13 12 11 9 8 6 5 4 2 -0 -1 -2 -2 -1 -1 -1 0
-3 -2 -1 -1 -0 -0 -0 0 3 5 7 11 13 15 18 22 23 22 24 23 25 21 15 14 13 13 11 9 7 5 4 1 -0 -2 -3 -3 -3 -3 -1 -2 -2 -1 -0
-2 -2 -1 -1 -1 -1 -0 1 3 7 10 13 13 16 19 20 21 20 21 22 15 14 13 10 8 7 6 4 2 1 -0 -2 -3 -4 -4 -5 -5 -5 -4 -2 -1 -2 -1
-1 -1 1 1 3 4 4 6 8 11 13 12 13 15 20 22 20 19 14 10 10 9 8 5 2 2 2 1 0 -1 -2 -3 -4 -5 -5 -6 -7 -6 -6 -4 -4 -2 -1
0 0 1 3 6 8 9 11 11 12 12 12 14 13 13 8 4 2 1 1 2 2 2 1 -1 -3 -2 -2 -1 -1 -3 -4 -4 -6 -7 -8 -8 -7 -8 -7 -5 -3 -1
-1 -0 0 2 4 5 6 6 7 8 5 4 4 3 2 1 -1 -1 -1 -2 -2 -1 -0 -1 -2 -4 -6 -6 -6 -5 -4 -6 -8 -9 -9 -10 -10 -9 -9 -8 -5 -3 1
-2 -2 -1 -0 0 1 1 1 1 0 0 0 -0 -1 -1 -1 -2 -3 -3 -3 -3 -3 -4 -4 -4 -6 -8 -10 -10 -12 -13 -8 -13 -14 -14 -13 -11 -9 -9 -7 -3 0 1
-5 -5 -4 -3 -3 -2 -2 -2 -2 -2 -2 -2 -2 -2 -3 -3 -3 -4 -4 -4 -5 -6 -8 -9 -10 -11 -12 -13 -14 -14 -14 -9 -11 -10 -12 -11 -9 -8 -6 -2 -1 -0 0

GFSGL_sfc_dewp_021.txt.gz
Dewpoint
22 25 26 26 26 25 25 28 31 31 31 31 31 33 33 33 33 32 31 31 30 30 28 28 27 28 26 27 28 28 27 28 34 19 21 26 26 22 21 19 20 17 18
20 24 23 22 24 22 22 24 29 30 31 30 30 30 31 31 31 31 30 29 29 28 27 26 24 24 25 24 25 25 24 25 30 22 20 23 23 22 16 16 14 13 18
17 20 21 23 24 23 21 23 26 27 28 30 29 29 29 29 29 29 29 28 27 27 26 25 23 24 25 24 22 22 23 19 24 23 19 19 20 21 17 15 17 17 13
15 16 20 21 22 21 20 22 25 26 25 27 28 28 28 27 26 27 27 26 26 25 25 25 23 21 23 25 24 24 24 24 22 24 18 13 12 14 14 13 16 18 17
17 17 18 20 20 22 22 22 26 26 24 25 27 28 28 27 25 26 25 26 26 25 24 23 23 23 25 26 23 25 25 25 23 21 17 12 10 13 12 15 16 19 20
22 22 22 24 23 23 22 21 23 24 22 23 23 24 26 26 29 30 29 27 25 23 23 23 22 24 26 29 30 28 26 25 24 22 16 11 10 11 13 15 16 20 18
25 25 24 23 23 21 20 18 18 19 19 20 21 22 22 24 27 29 31 29 27 26 23 22 21 20 23 21 28 30 29 29 27 21 19 13 11 11 14 17 17 17 20
24 24 23 22 21 19 17 17 16 17 17 17 18 21 22 22 25 27 30 29 28 27 26 24 23 21 21 20 20 25 25 26 25 22 18 16 12 14 16 18 20 22 21
19 20 20 19 20 19 17 15 15 17 17 18 19 19 20 22 24 25 26 29 28 28 27 26 25 23 25 27 22 24 28 25 28 30 26 26 22 23 21 24 23 21 21
17 17 17 19 18 17 17 15 16 16 16 15 16 17 18 19 22 24 24 26 28 28 28 27 28 26 27 28 24 23 24 25 25 26 23 22 22 23 26 21 23 20 20
17 17 17 17 17 16 16 15 14 13 13 12 12 13 15 17 19 22 24 24 26 27 27 28 27 30 30 29 29 25 24 26 27 25 22 20 22 22 22 24 23 21 18
13 12 12 12 12 13 12 11 11 11 10 9 10 11 11 13 17 21 23 24 26 26 27 27 28 30 30 28 28 28 27 26 26 24 21 21 23 23 23 24 22 21 19
7 5 5 6 6 7 8 8 8 9 8 8 7 8 8 10 13 18 21 23 24 25 26 28 30 30 32 29 29 29 26 26 26 23 21 21 22 22 23 21 18 18 16
0 0 1 1 1 2 2 3 4 4 4 5 5 6 7 9 12 16 21 22 23 24 24 25 28 32 33 29 24 27 28 28 25 22 22 21 22 22 18 17 16 15 14
-1 -1 -1 -1 -1 -1 -0 -0 -0 2 3 3 5 6 6 6 10 14 16 21 25 23 23 25 27 28 28 25 24 26 27 28 25 23 24 23 20 17 16 16 15 13 12
-2 -2 -3 -3 -2 -2 -3 -3 4 7 9 10 12 11 10 15 16 17 19 21 21 24 26 23 23 25 24 22 23 24 25 26 25 24 23 19 17 16 14 15 14 13 11
-3 -3 -3 -3 -3 -3 -2 -3 -3 -0 7 8 10 11 13 14 15 17 19 21 23 23 24 23 22 24 23 22 24 25 24 23 23 20 19 17 16 16 13 12 12 11 11
-3 -3 -3 -2 -1 -1 -1 -1 -1 -2 -2 -2 4 7 11 13 14 15 17 19 21 21 26 23 23 23 23 23 24 25 22 20 19 17 16 16 15 13 12 11 11 10 9
-3 -3 -2 -1 1 0 0 1 1 1 0 0 2 5 7 12 14 17 19 17 20 21 24 23 24 24 24 24 23 21 19 18 17 16 15 14 14 13 12 11 11 10 10
-2 -1 -1 -0 1 1 1 1 1 1 2 2 3 3 6 9 10 13 18 19 18 19 24 24 25 24 24 21 19 18 16 16 15 14 13 12 12 12 9 9 8 7 7
-1 -0 -0 0 0 1 2 3 4 6 6 6 5 7 14 13 15 16 17 19 20 25 25 24 23 21 20 19 16 16 15 13 12 10 8 8 9 7 8 9 8 7 6
-1 -1 -1 -0 1 2 3 5 5 5 5 6 9 11 16 12 13 14 15 15 19 20 20 19 19 18 17 15 14 13 10 8 8 7 7 6 7 7 7 7 6 5 5
-2 -2 -2 -1 1 1 2 3 3 3 3 4 4 4 4 4 5 5 6 7 8 8 11 12 11 10 11 12 12 11 8 7 7 7 5 5 5 5 5 4 5 4 4
-3 -3 -3 -3 -2 -1 0 0 1 1 0 0 1 1 1 1 2 2 3 4 5 5 6 6 6 7 7 8 9 9 8 8 8 7 6 5 4 4 4 4 3 3 3
-4 -5 -4 -4 -4 -3 -2 -1 -1 -1 -1 -1 -1 -0 0 1 0 0 1 2 2 2 3 3 4 3 3 3 3 5 8 7 6 6 6 5 3 3 2 2 2 2 2
-6 -6 -5 -5 -5 -5 -4 -4 -3 -2 -2 -1 -1 -1 -1 -1 -1 -1 -0 0 -0 -1 -1 -0 0 0 -0 1 1 3 4 5 1 2 3 3 1 0 0 1 0 1 1

GFSGL_sfc_dewp_024.txt.gz
Dewpoint
23 25 24 24 24 23 23 24 27 28 29 31 30 30 30 31 31 31 31 31 30 30 30 29 29 29 28 30 29 27 27 28 26 19 22 26 28 25 25 21 20 22 23
20 23 23 23 25 23 21 22 25 26 27 28 29 29 29 29 30 30 30 30 29 29 29 29 27 27 27 27 28 26 24 26 27 19 21 25 26 24 23 20 15 15 18
18 18 20 20 22 21 19 20 22 25 25 26 27 28 27 28 28 29 29 29 29 29 28 28 28 26 26 27 25 25 25 22 24 21 20 22 22 23 18 17 16 16 15
19 18 19 20 20 20 21 21 21 23 25 24 24 26 27 27 27 27 27 27 27 27 27 27 27 26 26 26 26 26 25 25 22 21 18 19 18 22 19 15 15 17 14
19 21 20 21 21 22 22 22 21 21 24 23 21 23 23 25 26 26 26 27 27 26 26 26 26 26 29 28 25 27 26 26 24 22 17 15 15 18 18 16 14 15 19
19 21 22 23 22 22 22 21 20 20 21 20 19 21 20 20 24 25 26 27 28 27 26 25 25 26 28 31 31 31 28 27 26 24 19 13 12 13 17 15 14 16 15
21 21 22 22 21 21 21 20 17 16 16 16 17 17 17 18 22 23 27 25 27 28 27 27 26 24 26 24 28 31 31 32 30 24 21 17 13 12 14 14 14 16 14
21 21 21 22 21 20 19 18 17 15 14 14 14 15 15 16 21 22 24 23 24 26 27 27 27 26 25 24 23 24 25 27 27 26 23 20 18 14 14 15 18 20 23
19 19 19 18 18 17 17 17 17 16 15 14 15 14 14 15 19 20 20 19 21 23 24 26 27 26 29 30 26 25 25 25 29 31 31 30 29 26 19 21 21 20 17
16 16 16 16 15 14 15 15 15 15 15 14 14 13 13 12 16 18 17 17 18 20 22 23 27 28 30 31 28 27 25 23 26 30 30 31 32 28 26 19 21 19 17
13 12 10 9 9 9 9 9 10 10 11 10 10 10 10 11 11 17 18 16 16 18 20 20 22 28 31 32 32 27 26 25 26 28 30 30 31 29 23 20 20 19 18
7 6 4 2 3 4 2 3 3 4 5 5 6 6 7 8 12 14 16 17 18 17 18 20 22 26 28 29 30 32 32 29 28 28 28 27 25 24 23 21 21 20 19
2 -1 -1 -1 0 0 -1 -1 -1 -0 0 1 1 2 3 4 5 12 14 15 16 14 17 21 25 26 27 27 29 32 31 30 29 27 26 25 23 21 21 24 24 20 19
-2 -2 -1 -2 -2 -2 -1 -1 -2 -2 -2 -2 -2 -2 -2 -2 -1 1 4 6 11 18 23 20 23 24 25 25 27 30 31 30 29 27 26 25 24 26 24 24 20 19 17
-2 -2 -2 -3 -3 -3 -2 -2 -2 1 3 2 4 5 5 4 6 9 10 10 11 13 15 21 21 20 20 22 25 29 29 30 28 28 26 24 24 24 23 24 21 20 17
-2 -3 -4 -5 -4 -4 -4 -4 4 7 9 11 12 11 9 14 15 15 15 16 17 18 16 15 16 19 19 20 24 26 26 27 27 27 25 24 23 22 20 20 19 17 17
-4 -3 -4 -4 -5 -4 -4 -4 -4 -1 8 9 10 11 13 14 15 15 15 16 17 18 14 15 15 16 19 20 22 24 23 24 27 27 24 24 22 19 17 16 15 16 15
-2 -3 -4 -4 -4 -4 -3 -2 -1 -2 -2 -2 5 8 11 15 16 16 17 17 12 12 12 14 13 15 18 22 22 22 23 25 25 25 24 20 19 17 15 15 14 14 14
-3 -4 -3 -3 -3 -2 -1 -0 -0 0 -0 0 2 6 7 11 14 15 16 13 12 11 11 13 15 18 20 23 22 22 24 22 21 21 19 18 18 16 15 15 14 14 13
-4 -3 -1 -2 -2 -2 -2 -1 -0 1 2 3 4 5 8 9 6 6 9 12 15 16 17 17 18 24 24 22 22 22 21 20 19 19 18 17 16 16 14 12 12 11 11
-3 -3 -4 -3 -4 -3 -1 0 -0 1 1 2 2 5 13 7 4 5 7 7 8 10 17 18 19 23 23 20 20 20 19 18 17 16 15 15 14 13 13 12 11 10 9
-6 -6 -5 -6 -4 -3 -2 -1 -0 0 -1 -1 -0 1 9 2 2 2 3 4 6 7 9 14 15 15 15 16 17 16 15 13 13 12 12 12 11 11 10 9 8 8 8
-6 -7 -7 -6 -6 -5 -4 -3 -2 -2 -2 -2 -1 -1 -1 -1 -0 0 1 2 4 4 6 7 9 9 11 12 14 14 11 10 10 11 10 9 9 8 8 7 7 6 6
-10 -8 -7 -7 -7 -6 -6 -4 -3 -3 -3 -3 -2 -2 -2 -2 -2 -1 -0 1 2 2 3 4 5 6 7 8 9 10 10 10 10 10 10 8 8 8 7 6 6 5 5
-13 -12 -11 -9 -9 -8 -7 -7 -5 -4 -3 -3 -3 -2 -2 -1 -2 -2 -1 -0 -1 -1 -1 -0 1 2 3 5 6 8 10 9 8 9 8 8 6 6 5 5 5 5 5
-15 -15 -16 -13 -11 -9 -8 -8 -8 -7 -6 -5 -4 -4 -3 -3 -3 -2 -2 -2 -2 -1 -1 -1 -0 1 4 4 4 6 7 9 6 7 7 6 4 4 4 3 3 3 4

GFSGL_sfc_dewp_027.txt.gz
Dewpoint
21 24 24 24 25 23 21 21 22 25 26 26 27 27 27 27 28 29 29 30 30 30 31 30 30 30 30 30 30 29 28 25 23 21 23 25 26 27 28 29 25 24 26
20 22 23 22 23 22 20 19 21 21 23 24 24 24 25 26 26 26 27 28 29 29 30 29 29 29 29 29 29 28 28 27 26 24 22 24 27 27 27 27 23 19 21
18 18 19 20 20 20 21 21 21 20 19 21 23 22 22 23 24 24 26 26 27 28 28 29 29 29 29 29 28 27 28 27 26 25 22 24 25 27 24 25 21 19 18
18 19 19 19 20 20 21 21 22 22 21 21 23 22 20 20 22 22 23 24 25 26 27 27 28 28 28 28 28 28 28 28 26 24 23 21 21 24 24 23 19 18 16
18 19 19 21 22 22 22 23 22 22 19 20 19 19 18 19 17 19 22 24 25 25 26 27 26 27 29 30 28 28 28 28 27 26 23 19 19 22 22 21 20 19 18
18 19 21 21 21 22 22 21 20 20 19 18 16 15 15 15 19 21 21 21 22 23 24 25 26 27 28 31 32 33 31 28 27 27 25 21 18 19 22 19 18 17 16
20 20 20 21 21 21 21 20 19 18 17 16 16 15 14 14 19 20 21 19 20 21 22 23 24 25 26 25 28 31 32 33 33 27 26 24 21 18 21 20 18 18 16
19 18 19 20 19 19 18 16 15 15 15 15 15 15 15 14 20 20 19 16 17 17 18 20 22 23 25 25 25 25 25 26 29 30 29 25 24 21 19 21 21 21 22
18 18 18 16 14 13 10 10 10 12 12 13 14 14 14 14 19 19 18 15 15 15 15 16 17 19 24 27 26 26 25 25 28 33 33 33 33 31 21 21 22 21 20
16 13 11 10 8 7 6 5 6 6 7 7 8 8 9 9 14 15 14 12 13 14 14 13 18 18 23 25 24 25 25 25 25 26 28 31 34 35 34 21 21 20 19
11 8 7 6 4 2 2 3 2 2 2 2 3 3 4 5 6 13 14 11 13 14 14 14 15 19 21 23 25 25 26 26 27 26 26 27 30 32 33 32 20 20 20
6 4 2 0 0 2 -1 -1 -1 -1 -2 -2 -1 -0 1 2 6 8 11 12 12 10 13 15 16 20 21 22 22 25 30 30 29 27 26 26 28 29 31 32 28 20 20
-2 -4 -3 -1 -0 -0 -2 -2 -2 -2 -2 -2 -2 -2 -2 -1 -0 8 10 10 10 6 6 8 13 16 23 23 26 28 27 25 27 28 28 25 26 27 28 30 31 27 27
-10 -4 -2 -2 -2 -2 -2 -3 -3 -3 -3 -2 -2 -3 -1 1 3 5 6 5 9 8 8 6 8 12 16 20 21 27 26 26 26 27 28 26 25 27 27 28 28 26 25
-4 -2 -2 -2 -4 -4 -3 -3 -2 0 2 3 5 7 7 6 7 12 15 14 14 15 13 10 10 12 14 15 21 23 23 22 23 24 29 28 27 27 25 26 24 22 22
-4 -2 -3 -3 -4 -4 -4 -4 4 7 9 11 12 11 10 14 15 16 17 18 19 19 14 12 10 10 9 11 14 19 19 19 21 25 26 28 26 24 23 24 24 22 21
-5 -3 -3 -3 -4 -5 -5 -5 -5 -1 8 9 10 11 12 14 16 17 18 19 19 18 14 11 9 8 9 11 15 14 20 20 24 25 27 27 26 23 23 23 22 20 20
-6 -3 -3 -4 -4 -4 -4 -3 -3 -3 -3 -2 5 8 11 12 14 15 18 18 13 13 12 11 8 7 10 12 12 16 17 21 23 24 27 27 25 23 22 20 19 18 19
-5 -4 -4 -4 -3 -3 -3 -3 -3 -2 -1 -1 0 3 4 10 13 11 13 8 7 7 10 12 12 11 10 10 12 13 16 21 22 23 25 25 24 22 19 19 18 18 18
-5 -4 -3 -5 -5 -5 -5 -4 -3 -3 -2 -2 -2 -1 1 6 -1 -1 1 3 3 4 6 6 8 14 14 17 17 18 19 21 22 23 23 22 21 21 18 18 17 16 15
-5 -6 -7 -6 -7 -7 -5 -5 -4 -4 -3 -4 -3 -0 11 1 -1 -1 -1 0 2 2 3 6 11 16 17 19 23 23 22 21 22 22 19 19 19 17 18 17 16 16 14
-10 -10 -9 -11 -8 -8 -8 -6 -5 -4 -4 -4 -3 -2 8 -2 -2 -2 -2 -1 0 2 3 4 7 9 11 13 17 18 18 17 17 16 16 16 16 14 14 13 13 12 11
-11 -12 -12 -12 -10 -9 -9 -9 -7 -5 -4 -4 -3 -3 -3 -3 -2 -2 -2 -1 -1 -1 1 2 2 4 7 9 11 12 11 11 12 14 13 12 12 11 11 10 10 10 9
-16 -16 -16 -16 -13 -11 -12 -10 -9 -7 -7 -5 -5 -5 -4 -4 -3 -2 -2 -1 -1 -1 0 1 2 2 3 6 8 9 9 10 11 12 12 11 10 10 10 9 9 8 8
-21 -21 -21 -20 -20 -15 -14 -14 -11 -11 -9 -7 -7 -7 -6 -6 -5 -4 -3 -2 -1 -1 -1 1 1 4 4 5 6 7 9 10 10 10 10 9 8 8 8 7 7 7 7
-19 -20 -22 -22 -21 -20 -20 -16 -15 -14 -14 -12 -11 -11 -10 -11 -9 -8 -6 -4 -3 -2 -1 -0 1 2 4 8 8 9 10 10 8 8 8 8 6 6 6 6 6 5 5

GFSGL_sfc_dewp_030.txt.gz
Dewpoint
19 21 21 21 21 21 20 20 19 19 20 21 23 24 24 24 23 23 22 24 26 27 28 29 30 31 31 31 30 31 31 30 29 28 24 24 25 26 26 32 31 29 30
19 19 19 19 19 19 19 20 21 20 20 19 19 19 19 19 21 23 23 23 23 22 24 27 28 28 29 30 30 29 29 29 29 29 28 23 24 26 27 29 29 27 27
18 17 17 18 18 19 20 20 21 21 21 20 19 19 19 19 18 17 18 20 22 23 24 25 25 27 28 29 29 29 29 28 28 28 27 24 24 26 26 27 28 26 24
19 18 19 19 19 20 21 21 21 22 21 21 20 19 18 18 16 16 17 17 19 21 24 25 25 25 26 27 28 28 29 29 28 27 27 26 23 25 26 25 24 24 22
17 18 18 20 21 21 21 22 22 22 21 21 19 18 17 15 13 14 16 18 19 19 20 21 23 25 28 28 27 27 28 28 28 28 26 25 22 23 24 24 24 23 23
19 19 20 21 20 21 21 21 19 18 16 15 15 15 15 14 19 20 19 17 17 16 17 18 19 22 25 28 29 30 30 28 27 28 27 26 25 21 22 23 23 22 21
19 17 18 19 19 19 17 15 13 11 11 11 12 12 13 14 19 20 20 18 18 17 16 16 17 17 20 21 25 27 27 30 32 29 27 26 26 25 22 22 22 22 21
17 15 16 17 14 12 10 9 8 8 8 8 8 9 9 10 16 17 16 13 14 16 16 15 15 14 16 18 20 22 23 24 24 25 28 29 29 28 25 23 24 24 23
15 17 15 12 9 8 6 6 5 5 5 5 6 6 6 6 12 13 12 10 11 11 10 11 11 12 16 19 16 17 19 22 26 29 30 31 33 35 32 28 26 24 22
14 10 9 9 4 4 4 3 3 3 4 3 3 3 3 2 9 12 11 9 8 9 11 10 15 13 17 19 16 17 18 19 21 24 25 27 31 31 33 33 30 26 23
10 8 7 5 3 2 2 2 1 0 1 -1 -0 0 1 2 3 10 12 9 9 8 8 9 9 14 15 18 22 20 21 22 24 24 24 25 25 26 29 30 34 29 26
5 3 1 -2 -1 1 -2 -1 -2 -2 -3 -3 -2 -1 -1 1 5 8 11 13 13 9 9 7 7 12 13 15 14 16 19 22 25 24 26 26 24 25 26 28 29 33 29
-4 -7 -7 -4 -1 -1 -3 -3 -3 -3 -4 -3 -3 -3 -3 -1 -0 9 11 12 13 9 7 9 14 15 15 13 13 12 11 15 17 21 24 26 26 24 25 26 28 31 32
-15 -8 -4 -4 -3 -3 -1 -2 -4 -5 -4 -3 -3 -2 0 4 6 7 8 9 12 13 13 10 11 14 16 15 12 12 12 13 14 16 23 26 28 26 25 26 27 29 29
-8 -4 -4 -4 -6 -3 -2 -3 -2 1 3 4 6 8 7 6 7 13 16 14 15 17 18 18 15 10 6 6 8 10 11 12 13 19 20 24 27 28 27 27 27 27 26
-7 -4 -3 -3 -3 -3 -4 -4 4 7 10 11 13 11 10 14 15 17 18 18 19 20 17 15 13 12 11 11 10 9 9 10 12 22 23 23 23 24 26 26 26 26 23
-13 -6 -4 -3 -4 -4 -4 -5 -6 -2 7 8 9 10 12 13 13 14 16 17 16 14 11 9 9 10 11 11 11 9 8 11 14 17 22 19 20 21 25 25 24 24 22
-15 -7 -6 -5 -5 -4 -5 -4 -4 -5 -5 -4 3 7 9 10 12 14 13 11 -0 2 3 5 6 7 9 11 11 12 12 12 14 17 21 21 23 25 24 24 23 21 21
-12 -9 -10 -7 -4 -4 -5 -5 -5 -4 -4 -4 -3 1 2 9 10 8 8 -1 -1 -1 1 2 4 4 5 6 12 12 11 9 10 11 15 20 22 25 24 24 23 22 20
-16 -9 -6 -11 -7 -7 -7 -7 -6 -6 -5 -5 -5 -4 -2 3 -4 -4 -4 -3 -3 -2 -1 -0 1 3 7 10 13 14 14 14 14 14 16 21 22 23 24 23 21 20 20
-17 -14 -10 -12 -11 -11 -9 -9 -8 -7 -7 -6 -5 -2 10 -1 -4 -4 -3 -3 -3 -3 -3 -2 -0 2 5 7 9 13 18 17 18 19 20 23 22 22 23 22 21 20 20
-18 -20 -19 -14 -11 -12 -13 -10 -10 -9 -8 -7 -6 -4 7 -4 -4 -4 -3 -2 -1 -0 0 -0 -0 2 4 5 6 7 10 12 14 17 17 17 18 18 18 18 17 17 15
-19 -19 -15 -12 -13 -14 -14 -17 -16 -13 -11 -10 -9 -8 -7 -7 -6 -5 -5 -3 -1 -0 1 1 1 2 4 6 7 8 7 8 10 13 12 13 13 14 14 13 13 12 11
-20 -17 -12 -12 -17 -18 -18 -18 -17 -14 -14 -14 -15 -12 -11 -10 -10 -8 -6 -4 -2 -1 0 1 2 2 4 6 7 7 9 10 10 11 12 11 10 11 11 10 11 11 10
-17 -13 -13 -14 -23 -21 -21 -22 -19 -21 -20 -18 -16 -15 -14 -13 -12 -12 -10 -7 -5 -3 -2 -1 1 2 4 7 8 8 9 9 9 10 10 10 9 9 8 8 8 8 8
-11 -12 -13 -17 -19 -22 -26 -25 -23 -21 -21 -18 -17 -16 -15 -14 -13 -13 -12 -11 -10 -7 -4 -1 -1 0 2 7 9 13 13 12 8 9 9 8 7 7 7 7 7 6 6

GFSGL_sfc_dewp_033.txt.gz
Dewpoint
18 19 19 19 19 19 19 19 20 20 20 20 20 20 20 20 20 21 21 20 20 21 21 23 24 27 27 30 31 31 31 30 29 30 30 26 24 26 26 30 31 31 32
17 17 17 17 18 18 19 19 21 20 21 20 20 20 19 18 19 19 18 19 20 18 19 21 21 22 25 27 28 29 29 29 29 28 28 29 24 25 26 26 28 30 30
18 17 17 17 18 18 19 20 21 21 21 21 20 19 18 18 17 16 16 15 16 17 19 21 21 22 23 24 25 26 27 28 29 28 27 28 27 26 26 26 27 29 28
20 18 18 19 19 19 20 21 21 22 21 21 20 19 18 17 16 15 14 14 16 17 18 18 19 21 22 23 23 24 25 26 27 27 27 27 27 26 26 25 25 28 27
17 18 18 20 20 20 20 21 20 20 17 15 12 13 12 12 12 14 15 17 18 17 17 17 17 19 22 22 21 23 25 26 26 25 25 25 26 23 24 25 25 25 26
18 18 18 19 19 19 17 15 12 11 10 10 10 10 11 9 15 18 17 15 16 17 18 17 17 18 18 21 22 24 24 24 24 26 25 23 22 26 25 24 24 24 23
18 15 16 17 15 14 11 10 9 8 8 8 7 7 6 6 13 16 16 11 11 11 11 12 15 16 17 15 18 20 20 22 24 22 23 25 25 24 26 24 24 25 24
15 14 14 13 10 9 8 7 6 6 5 5 5 5 5 4 12 13 14 9 9 8 8 9 9 10 12 13 12 14 15 16 17 19 22 22 23 26 27 27 26 26 26
16 15 12 10 7 7 4 5 4 4 4 3 5 4 3 3 10 12 12 9 9 9 7 7 8 8 13 16 14 15 14 15 17 20 21 24 27 29 29 28 27 25 24
14 11 9 9 2 2 4 2 3 2 3 2 3 2 2 0 8 11 11 9 8 9 9 6 11 9 14 15 14 15 14 14 17 20 19 20 21 22 29 29 28 27 25
9 8 7 5 2 1 0 2 0 -1 0 -1 -1 -0 -0 1 2 10 12 9 10 9 10 11 11 13 14 15 16 13 13 13 14 13 14 20 21 22 23 24 27 28 25
6 4 1 -4 -3 -1 -9 -4 -5 -4 -4 -4 -4 -3 -1 0 5 8 12 14 14 11 10 9 9 14 15 17 18 20 22 21 18 16 15 15 16 21 22 24 25 27 29
1 -4 -10 -6 -3 -2 -8 -4 -4 -6 -6 -4 -3 -3 -3 -1 1 10 13 14 14 11 11 12 16 16 16 14 15 16 14 11 9 8 6 7 9 12 19 25 26 26 27
-4 -6 -5 -7 -6 -6 -2 -1 -5 -5 -4 -3 -3 -2 1 5 7 6 7 10 16 16 17 15 16 19 21 19 16 15 13 12 10 9 9 8 9 11 13 21 24 26 26
-5 -3 -3 -5 -8 -5 -4 -3 -2 0 3 4 7 8 8 6 8 15 16 15 15 17 18 16 13 13 14 15 11 10 10 9 8 8 9 10 11 13 13 13 26 25 25
-4 -3 -4 -4 -4 -3 -3 -4 3 7 10 11 12 10 11 13 15 16 16 18 17 17 10 4 3 4 5 6 8 9 11 13 13 12 10 10 13 14 15 16 27 26 25
-10 -6 -6 -4 -5 -6 -6 -6 -7 -3 7 6 8 10 11 12 13 15 14 15 12 9 -3 -2 -0 1 2 3 4 5 6 10 12 12 11 13 15 16 23 23 24 25 24
-9 -8 -11 -9 -9 -10 -9 -7 -7 -8 -8 -6 1 6 9 10 13 11 12 6 -5 -3 -4 -3 -2 -1 0 1 3 4 6 9 13 13 13 14 16 15 21 20 19 21 22
-11 -11 -11 -11 -11 -8 -9 -8 -8 -7 -7 -7 -6 -1 1 8 9 8 8 -8 -5 -6 -5 -5 -4 -3 -1 1 3 5 8 11 13 12 12 10 11 12 16 21 22 23 21
-16 -10 -9 -14 -14 -14 -11 -11 -9 -9 -9 -9 -8 -7 -4 1 -6 -6 -6 -5 -5 -5 -4 -3 -3 -2 -2 0 2 4 5 8 11 14 13 13 12 14 16 20 22 23 22
-16 -17 -10 -11 -13 -20 -17 -14 -11 -11 -11 -11 -9 -5 9 -4 -8 -8 -7 -6 -5 -4 -3 -2 -1 -1 -0 1 2 3 5 7 9 11 16 16 17 18 19 22 21 21 22
-14 -13 -20 -22 -19 -17 -18 -13 -11 -13 -14 -12 -10 -8 4 -9 -10 -10 -8 -7 -5 -3 -1 -1 -0 1 2 3 4 4 4 6 8 9 11 12 14 17 19 20 20 20 19
-14 -19 -22 -23 -20 -18 -17 -14 -14 -18 -18 -17 -15 -13 -13 -13 -13 -12 -11 -11 -8 -6 -3 -1 0 1 2 4 8 8 6 6 8 9 9 9 10 8 7 10 12 13 13
-21 -20 -19 -20 -20 -18 -14 -14 -16 -16 -17 -18 -21 -20 -16 -15 -16 -15 -14 -13 -11 -10 -7 -3 -1 0 0 2 7 10 9 9 8 8 9 9 9 9 9 10 10 10 11
-26 -23 -20 -19 -21 -16 -15 -16 -17 -24 -23 -21 -21 -23 -19 -18 -16 -16 -15 -14 -13 -13 -12 -9 -5 -3 -2 -0 4 9 13 10 8 8 8 8 7 7 7 7 8 9 9
-15 -16 -17 -18 -16 -14 -16 -18 -20 -22 -23 -22 -22 -22 -21 -19 -17 -16 -16 -15 -14 -14 -14 -11 -9 -8 -6 -1 2 11 12 15 8 8 8 7 6 6 6 6 6 6 6

GFSGL_sfc_dewp_036.txt.gz
Dewpoint
18 18 18 18 18 19 19 19 20 20 20 20 20 20 19 19 19 19 18 17 17 17 18 18 19 22 22 25 26 28 28 28 27 26 28 30 29 28 28 28 29 30 31
17 18 18 18 18 18 18 19 21 20 21 21 20 19 18 17 17 17 16 16 16 15 16 17 18 18 20 21 23 23 24 26 26 24 24 25 28 29 28 28 26 28 29
17 17 17 18 18 18 19 20 21 21 20 20 20 18 16 16 16 15 15 15 14 15 16 17 17 18 19 20 21 21 21 22 24 25 24 24 25 28 27 27 27 28 29
18 17 18 18 19 19 20 20 19 19 16 12 11 10 11 11 10 11 12 14 15 16 17 17 17 17 18 19 20 21 22 23 23 23 23 23 24 25 26 26 26 27 27
18 18 18 19 18 19 18 18 15 13 10 10 9 10 9 8 5 10 11 13 14 14 14 15 16 18 21 21 18 19 20 20 21 22 21 21 23 23 24 25 25 26 27
17 18 18 19 19 18 16 13 11 10 9 9 8 8 7 3 12 16 15 12 11 9 9 9 9 12 14 18 20 21 20 20 21 21 22 19 20 22 23 24 25 24 23
19 16 16 16 14 12 11 10 8 8 7 6 5 5 5 5 12 15 15 10 10 9 8 7 6 6 10 9 13 16 17 19 19 16 16 17 16 18 21 24 25 24 24
16 14 14 12 9 10 8 7 6 5 5 4 4 4 4 3 12 14 14 10 9 8 7 7 6 6 8 9 10 12 13 14 14 13 15 15 16 17 19 21 22 24 26
14 15 12 9 7 6 3 4 5 4 3 3 4 3 3 2 10 13 12 10 9 9 6 6 6 6 11 14 13 15 16 15 15 17 18 20 24 26 23 20 22 24 23
14 13 9 8 3 2 4 2 3 0 3 2 3 2 2 0 8 12 12 10 9 9 9 7 13 10 15 16 14 14 12 12 12 12 13 14 15 14 16 19 21 21 21
11 8 7 5 2 1 -1 1 -2 -3 0 -2 -1 -1 -0 1 2 10 13 11 11 12 13 12 10 14 15 16 18 16 15 16 16 15 16 17 16 15 14 14 17 20 20
6 5 4 1 -1 1 -9 -7 -8 -8 -8 -7 -5 -3 -1 1 6 10 14 14 14 12 13 13 14 17 19 22 22 23 24 24 17 12 10 9 8 8 8 10 12 14 19
2 -1 -2 -1 0 0 -8 -5 -5 -9 -9 -6 -3 -3 -1 1 3 12 13 15 15 14 16 16 17 18 19 19 19 20 17 15 14 13 12 11 10 10 10 10 11 11 12
-7 -2 -1 -4 -2 -2 -1 -1 -7 -8 -6 -4 -3 -2 1 6 6 7 10 15 17 15 18 18 14 13 13 12 11 12 14 14 13 12 11 10 10 10 10 10 9 9 10
-6 -1 -1 -1 -2 -3 -2 -3 -2 -1 -0 -2 2 7 7 6 8 15 15 15 15 16 12 6 1 1 2 3 5 6 8 9 10 10 10 9 9 9 9 11 11 11 9
-3 -2 -1 -2 -2 -2 -3 -4 4 8 10 12 13 11 10 12 14 14 16 15 16 13 1 -6 -4 -2 -1 -0 1 2 3 4 5 7 9 12 12 11 10 11 12 14 12
-5 -1 -2 -3 -3 -4 -5 -7 -8 -5 5 6 7 9 10 12 12 14 13 14 10 7 -11 -8 -6 -5 -3 -2 -1 -0 0 2 6 8 8 9 11 12 12 11 13 15 16
-7 -4 -5 -5 -6 -7 -9 -10 -9 -10 -11 -9 -2 4 8 9 11 11 11 5 -7 -6 -17 -8 -7 -6 -4 -3 -2 -1 0 2 3 6 8 12 12 12 12 12 12 13 20
-6 -6 -7 -7 -8 -8 -8 -7 -9 -10 -10 -11 -9 -4 -1 6 8 6 6 -16 -10 -8 -7 -6 -5 -4 -3 -2 -1 -1 1 2 4 5 8 11 13 11 10 11 12 14 18
-9 -6 -7 -10 -10 -10 -10 -11 -11 -12 -13 -13 -12 -10 -8 -7 -17 -17 -17 -18 -13 -8 -7 -6 -4 -3 -2 -1 -0 1 1 2 4 5 7 8 13 13 12 12 13 14 16
-12 -14 -10 -16 -16 -17 -17 -15 -13 -16 -14 -15 -13 -8 6 -5 -15 -16 -14 -13 -13 -10 -7 -6 -4 -3 -2 -1 1 1 2 3 4 5 7 7 10 11 15 16 17 19 20
-17 -17 -22 -19 -18 -17 -18 -16 -16 -16 -16 -14 -11 -10 2 -13 -14 -15 -14 -15 -13 -12 -10 -8 -6 -3 -1 0 1 1 2 4 5 5 5 6 8 10 10 12 14 18 20
-15 -15 -17 -22 -20 -19 -20 -21 -19 -19 -16 -14 -13 -14 -17 -18 -18 -18 -17 -16 -15 -13 -12 -11 -10 -7 -4 -1 0 2 4 7 8 7 5 6 7 8 9 8 9 10 11
-19 -18 -17 -20 -24 -22 -20 -20 -18 -15 -14 -13 -19 -20 -18 -19 -22 -20 -19 -17 -16 -15 -14 -13 -12 -11 -8 -7 -4 1 3 9 9 7 6 6 6 7 8 8 9 10 11
-22 -22 -22 -20 -23 -19 -18 -17 -15 -14 -15 -17 -19 -22 -21 -22 -21 -22 -21 -20 -18 -16 -15 -14 -13 -12 -12 -11 -9 -5 -1 10 7 7 6 6 6 6 6 7 7 8 9
-13 -15 -16 -15 -16 -17 -17 -15 -14 -13 -15 -18 -20 -21 -23 -22 -21 -21 -20 -21 -18 -17 -18 -15 -13 -15 -13 -10 -8 -1 5 14 8 6 5 5 5 5 5 5 5 5 5

GFSGL_sfc_dewp_042.txt.gz
Dewpoint
18 19 20 19 19 19 19 19 18 17 15 13 13 13 13 13 14 14 15 15 16 17 16 16 16 17 17 17 18 18 18 18 20 20 20 21 21 22 23 24 27 26 25
19 20 20 20 20 19 18 18 18 14 14 13 11 11 10 11 11 12 12 13 14 12 13 14 13 12 15 15 16 16 17 17 18 19 19 19 19 22 23 24 22 21 25
19 20 19 19 19 19 19 17 15 13 11 10 9 9 9 8 8 9 10 11 12 12 12 12 12 11 12 13 12 12 14 14 17 19 19 19 19 20 20 21 22 25 23
18 19 19 20 20 19 19 16 13 10 9 8 8 7 7 6 4 7 11 12 12 12 11 10 9 9 10 11 12 13 13 16 16 16 17 17 17 17 19 20 21 23 23
17 18 19 21 20 20 18 15 13 11 8 8 7 7 5 4 1 12 13 14 13 11 10 8 8 10 14 13 11 13 13 15 15 15 13 13 13 15 18 21 20 20 19
17 19 19 23 22 22 19 15 12 11 10 9 8 7 7 2 9 15 16 14 12 9 8 7 7 9 8 13 14 15 15 16 16 17 13 10 10 11 14 15 16 16 15
24 26 26 26 23 20 16 13 11 9 8 7 7 6 6 6 9 15 16 13 12 9 8 7 5 4 8 5 10 14 14 15 16 14 16 13 11 10 11 13 13 14 14
25 26 25 23 22 18 14 12 10 8 8 7 6 6 5 4 10 14 16 13 11 10 8 8 7 6 8 10 10 14 13 15 14 11 13 14 13 15 15 15 18 21 21
22 23 23 22 21 16 14 11 9 10 9 10 10 10 9 8 10 13 14 14 12 12 10 9 9 9 14 18 17 18 17 17 16 18 19 20 20 20 19 20 21 20 17
22 21 22 21 19 16 13 12 12 11 10 7 10 8 7 7 9 12 14 14 15 13 13 11 16 13 17 19 19 21 20 20 21 22 21 19 19 18 19 18 19 18 17
24 22 20 18 16 14 12 11 11 9 7 8 6 7 7 6 8 12 14 14 14 15 15 14 13 17 19 21 19 18 17 17 20 19 18 18 18 19 20 19 18 18 17
21 19 17 15 13 11 10 9 7 7 6 6 6 6 5 6 8 11 14 15 16 17 16 14 15 17 16 16 15 16 17 16 14 14 14 14 13 14 15 16 16 16 16
18 16 14 11 11 10 8 8 7 7 6 7 5 6 5 5 8 11 14 15 16 16 16 15 16 14 12 10 12 13 11 8 10 10 9 9 8 10 11 13 16 16 17
16 13 10 8 8 7 7 7 8 8 7 7 7 7 7 8 8 10 11 14 18 17 18 12 10 9 9 8 5 5 5 5 5 6 6 6 7 9 11 11 13 14 15
14 11 11 9 7 8 7 7 7 8 8 8 8 8 9 10 11 12 15 17 18 20 13 10 5 4 3 3 4 4 4 4 4 5 6 7 7 8 9 11 11 12 13
12 10 9 8 6 5 5 5 10 12 13 15 15 15 15 16 17 14 14 15 17 14 10 4 2 2 1 2 2 2 3 4 4 4 5 6 7 8 8 10 11 12 12
14 11 8 5 6 5 4 4 6 5 9 11 12 13 14 14 13 13 14 14 13 8 4 2 1 1 1 1 2 2 2 3 5 4 5 6 7 8 8 9 10 11 14
7 5 7 6 5 5 5 5 3 3 3 3 4 6 8 10 12 12 12 12 6 2 1 0 -0 0 1 1 2 2 2 3 4 5 6 7 8 8 8 8 9 10 12
3 2 3 3 3 2 2 1 0 -0 -0 -0 -0 1 3 6 8 10 10 4 -0 -1 -1 -2 -1 -1 -1 -1 0 1 2 3 4 4 6 7 8 9 8 8 9 9 10
-2 -3 -1 1 1 -0 -1 -1 -2 -2 -2 -2 -2 -2 -0 -3 -1 2 1 -1 -2 -3 -3 -4 -4 -3 -3 -2 -1 -0 1 3 4 5 6 7 9 9 8 7 8 9 10
-1 -2 -4 -2 -1 -1 -1 -2 -3 -3 -3 -3 -3 -2 3 -1 0 2 0 -2 -3 -4 -5 -5 -5 -5 -4 -4 -3 -2 -0 1 2 4 5 6 8 7 8 8 9 10 11
-5 -5 -5 -6 -5 -5 -4 -4 -5 -5 -5 -5 -5 -3 5 3 2 -0 -3 -4 -4 -6 -7 -7 -6 -5 -5 -5 -4 -4 -3 -1 1 3 4 4 8 8 8 8 8 9 10
-7 -7 -7 -7 -7 -8 -8 -7 -7 -7 -7 -7 -7 -6 -4 -4 -5 -5 -6 -6 -8 -9 -8 -8 -8 -8 -6 -6 -4 -4 -4 -3 -0 1 2 4 7 8 7 8 8 8 9
-6 -7 -7 -7 -7 -7 -7 -7 -7 -9 -10 -9 -8 -7 -7 -7 -7 -8 -8 -9 -10 -9 -9 -9 -10 -9 -9 -9 -6 -4 -3 -3 -1 0 2 8 7 7 6 6 7 7 8
-7 -7 -7 -7 -7 -8 -8 -8 -9 -10 -10 -10 -9 -9 -9 -8 -8 -7 -9 -11 -12 -12 -11 -11 -10 -10 -11 -11 -10 -10 -8 -5 -4 2 9 8 6 6 6 6 5 6 5
-5 -6 -6 -7 -7 -8 -8 -8 -8 -7 -7 -6 -5 -5 -5 -6 -7 -9 -11 -12 -13 -12 -12 -11 -12 -13 -13 -12 -10 -6 -4 3 5 12 7 8 6 6 5 5 4 5 4

GFSGL_sfc_dewp_045.txt.gz
Dewpoint
20 21 21 21 20 20 21 20 19 18 16 15 14 15 14 14 15 15 17 17 18 19 19 18 17 17 16 17 18 18 18 19 18 18 19 20 20 21 21 23 25 23 24
20 22 21 20 21 21 19 19 22 17 16 15 13 12 12 12 12 13 13 15 15 14 15 15 14 11 14 13 14 14 14 14 15 15 16 17 18 20 20 19 18 18 22
20 21 21 21 21 21 20 20 19 17 15 12 12 12 11 10 9 10 11 13 13 13 13 13 12 12 14 14 12 12 13 12 15 15 15 15 16 17 17 19 19 20 19
20 21 22 21 21 21 21 20 18 16 14 12 11 9 8 7 6 6 11 12 13 13 13 12 11 10 11 12 12 13 13 15 15 13 13 12 12 13 15 15 16 19 18
18 20 21 23 22 22 23 21 19 16 12 11 9 8 7 6 2 9 13 15 15 13 12 10 9 11 14 14 12 14 14 14 14 14 12 11 10 10 11 14 13 14 15
18 20 21 23 24 26 24 21 18 16 14 13 12 10 9 4 5 14 16 15 14 11 10 8 8 12 9 13 14 15 15 15 15 14 12 12 12 11 11 11 12 12 11
23 25 26 26 26 25 23 20 17 15 13 12 10 9 9 9 11 14 17 15 13 12 10 9 7 6 11 7 12 15 15 16 18 14 14 13 12 11 11 12 12 13 13
25 27 27 26 25 24 21 19 17 15 14 12 10 9 9 8 11 14 16 14 13 12 11 10 9 9 10 13 13 16 18 18 17 15 15 15 15 16 16 16 18 19 19
24 25 26 25 25 23 20 18 17 16 15 15 14 15 14 14 13 14 15 15 14 14 13 12 11 12 15 18 16 18 20 19 18 21 20 20 21 22 24 22 21 18 15
23 23 24 25 24 23 20 19 19 18 17 13 15 15 14 13 13 14 14 15 16 16 16 13 17 15 17 18 19 16 14 14 14 16 18 17 17 17 19 17 19 16 15
25 24 24 24 23 22 21 19 18 17 13 14 13 13 13 11 11 14 16 15 16 16 16 16 15 16 17 18 17 15 13 15 16 13 12 13 14 15 15 15 17 20 18
26 24 23 22 22 20 18 17 16 14 13 12 11 11 10 10 11 13 16 17 17 16 16 15 16 17 18 16 14 15 16 13 9 9 9 9 9 10 12 12 12 14 14
22 21 20 19 19 17 15 14 12 12 11 12 11 11 11 10 10 13 16 17 17 16 16 16 19 16 15 11 12 13 11 8 7 6 5 6 7 8 8 10 12 13 14
20 18 17 15 16 14 14 14 14 13 12 12 12 12 12 11 10 12 13 14 17 17 18 16 13 13 10 9 8 7 7 7 6 6 6 6 6 7 7 9 10 11 11
20 17 17 15 14 13 12 13 12 14 14 14 15 14 13 11 13 14 15 16 17 18 19 12 10 7 6 6 6 6 6 6 6 6 5 5 6 6 6 7 9 9 8
18 17 16 15 13 13 12 11 14 15 14 15 15 13 13 15 17 16 17 17 17 18 12 8 6 5 4 4 4 4 5 5 5 5 5 6 5 5 6 6 7 8 8
20 18 15 13 13 11 10 10 10 11 14 16 17 18 18 17 17 17 18 16 16 11 6 5 4 4 3 3 3 3 3 4 5 4 5 5 5 5 5 6 6 7 7
14 9 13 11 11 10 10 10 10 9 9 9 10 11 13 13 14 15 15 15 12 8 3 1 1 2 2 2 2 2 2 2 3 3 3 3 4 5 5 6 6 6 6
9 8 7 7 7 6 7 6 6 5 5 5 5 6 8 10 12 13 14 12 8 3 2 1 1 0 -0 0 -0 -0 -0 0 1 1 2 3 4 5 5 6 5 5 6
3 1 1 4 4 3 3 3 3 3 3 3 3 2 4 -0 -1 1 5 4 2 0 0 -1 -2 -2 -2 -3 -3 -3 -2 -2 -0 0 1 2 3 4 4 5 5 5 5
3 1 -3 -0 1 2 2 1 1 1 0 0 0 2 6 1 -0 1 2 3 2 -0 -1 -2 -3 -3 -4 -4 -5 -4 -4 -3 -2 -1 0 1 2 1 4 6 6 6 7
-1 -2 -2 -2 -3 -3 -2 -2 -1 -2 -2 -3 -3 -1 5 3 4 5 5 3 2 -1 -4 -6 -6 -5 -5 -6 -7 -6 -6 -6 -5 -2 -1 -1 -1 1 5 5 5 5 5
-4 -4 -4 -4 -4 -5 -5 -4 -4 -4 -5 -4 -4 -4 -4 -3 -1 0 2 1 -0 -3 -6 -7 -7 -7 -7 -8 -6 -6 -6 -6 -5 -3 -3 -3 -2 1 5 4 3 3 3
-4 -5 -5 -5 -5 -5 -6 -6 -5 -6 -6 -7 -8 -6 -6 -5 -3 -1 -1 -2 -3 -5 -7 -9 -8 -11 -10 -11 -9 -8 -7 -6 -4 -4 -3 -3 -2 5 4 3 3 2 4
-4 -5 -5 -5 -5 -6 -6 -6 -6 -6 -6 -7 -7 -7 -7 -6 -6 -4 -2 -2 -5 -7 -9 -9 -10 -11 -12 -14 -13 -14 -12 -7 -9 -7 -5 -2 4 4 0 1 -1 1 0
-3 -4 -4 -5 -5 -6 -6 -6 -6 -6 -6 -6 -5 -4 -3 -3 -3 -2 -3 -4 -7 -9 -10 -11 -11 -13 -14 -13 -14 -10 -9 -2 -3 -0 5 8 6 -4 -5 -5 -5 -4 -3

GFSGL_sfc_dewp_048.txt.gz
Dewpoint
22 22 22 22 21 22 22 21 20 19 18 17 17 17 16 15 15 15 16 15 16 17 16 16 16 16 16 16 16 17 17 16 14 13 14 15 15 17 17 18 19 19 20
22 23 22 22 22 21 21 20 20 18 18 16 16 15 14 14 13 13 13 14 14 14 15 15 14 12 14 14 14 13 14 14 13 12 13 14 14 15 15 14 13 13 16
23 23 22 21 21 20 20 20 20 18 17 15 14 14 13 13 11 12 12 13 13 14 14 14 13 13 14 14 12 12 14 12 15 13 12 13 12 13 13 13 12 14 13
22 22 22 21 22 21 21 20 19 18 16 14 14 12 11 10 8 9 11 13 14 14 15 14 13 12 12 13 12 14 13 14 13 12 12 11 12 12 12 11 11 13 12
21 22 22 23 22 22 22 21 19 17 15 14 13 11 10 8 7 9 13 16 16 15 14 13 12 13 14 15 13 15 15 14 13 14 13 11 11 11 11 12 11 11 12
19 21 23 23 23 24 23 21 19 17 15 14 12 13 11 6 9 13 16 17 16 14 13 12 10 14 11 13 15 16 16 15 13 12 13 14 13 11 12 11 11 11 10
22 23 24 24 24 24 22 20 18 17 16 15 14 13 12 12 14 15 17 16 15 15 14 11 10 8 13 10 12 16 17 18 20 17 17 15 15 15 15 15 15 15 15
23 24 25 24 24 23 21 19 18 17 15 14 13 13 11 11 15 16 17 16 16 15 13 12 11 11 12 13 14 16 17 18 18 16 17 16 15 16 19 22 21 20 20
23 24 24 24 24 23 21 19 18 16 15 14 15 13 12 13 15 16 16 17 16 15 14 14 13 12 15 18 17 15 18 15 16 17 18 20 20 20 18 15 14 15 14
23 24 24 25 25 23 21 19 17 15 15 15 16 13 13 11 17 18 17 16 12 15 16 15 19 16 19 18 18 14 12 12 12 15 12 12 13 13 16 14 16 15 15
24 24 24 24 23 22 20 17 16 14 16 13 13 13 11 12 11 17 18 16 15 14 15 16 16 18 18 19 20 15 12 15 10 7 8 8 9 10 10 11 12 12 10
23 22 22 23 23 21 18 13 13 14 10 9 8 9 11 12 14 15 17 19 18 15 13 16 16 18 18 20 17 16 15 14 3 4 5 5 6 7 7 8 9 10 11
21 21 18 18 18 17 15 12 11 10 10 9 9 8 9 11 11 16 18 18 19 17 17 17 19 21 18 14 13 13 12 5 2 -2 3 5 6 6 6 7 9 10 11
18 17 15 15 13 11 14 13 12 10 9 10 10 10 8 10 10 10 12 12 16 16 16 15 16 17 16 11 8 8 8 7 6 5 5 6 5 5 6 7 7 7 7
15 14 13 11 12 9 10 11 12 9 11 6 7 6 5 7 10 12 12 8 8 13 14 9 4 2 2 2 2 3 4 4 4 4 4 3 4 5 5 5 6 6 5
13 13 12 11 9 9 8 6 16 16 16 17 18 12 6 14 15 16 18 20 21 23 17 -2 -3 -1 2 2 1 1 1 2 3 4 3 3 4 4 3 4 5 5 5
10 12 11 11 9 7 5 6 3 9 16 18 19 19 20 23 23 23 23 23 23 23 4 -5 -3 -1 0 2 -0 -0 1 2 3 3 2 2 2 2 3 3 4 5 4
4 7 7 4 4 3 3 4 4 1 3 5 9 12 13 15 16 17 18 19 17 16 -7 -6 -1 -2 -2 -2 -3 -4 -3 0 -0 -0 -0 -1 0 1 1 2 2 3 3
4 2 2 2 1 2 3 3 3 2 -2 -6 -5 3 7 10 12 14 16 14 13 11 3 -3 -3 -3 -3 -5 -9 -10 -9 -4 -6 -6 -4 -2 -1 0 -0 1 2 3 4
-3 0 -2 -3 -4 -2 -1 -4 -4 -5 -6 -7 -5 -3 -2 -7 -10 -12 -6 -2 -2 -1 -4 -3 -5 -6 -8 -7 -12 -15 -8 -10 -11 -13 -10 -5 -3 -0 -0 -1 0 3 3
-4 -7 -5 -8 -9 -9 -10 -9 -7 -8 -8 -8 -5 -0 6 3 2 -6 -9 -7 -4 -9 -7 -5 -6 -8 -7 -9 -15 -15 -10 -10 -14 -15 -14 -5 -3 -3 -3 -1 2 3 3
-5 -8 -12 -14 -10 -11 -11 -8 -9 -10 -11 -11 -9 -7 4 -3 -6 -4 -1 2 2 -3 -2 -2 -6 -7 -6 -8 -13 -12 -14 -15 -15 -18 -12 -7 -7 -6 -5 -2 2 2 1
-6 -11 -13 -13 -10 -9 -12 -14 -15 -16 -14 -15 -14 -11 -15 -14 -13 -11 -6 -3 -3 -4 -3 -3 -6 -6 -6 -8 -11 -11 -12 -12 -14 -20 -11 -8 -9 -7 -6 -2 1 -0 0
-9 -13 -11 -11 -11 -12 -15 -17 -15 -13 -17 -17 -20 -17 -13 -13 -16 -13 -8 -5 -6 -6 -4 -4 -5 -7 -7 -10 -13 -16 -16 -12 -19 -14 -11 -7 -8 -7 -5 0 -4 -3 -2
-10 -10 -8 -10 -13 -16 -18 -19 -17 -21 -21 -17 -15 -15 -15 -15 -14 -15 -11 -5 -3 -4 -5 -5 -6 -7 -9 -11 -15 -18 -17 -8 -11 -14 -16 -10 -8 -9 -4 -4 -11 -9 -9
-8 -7 -9 -12 -12 -18 -20 -19 -19 -18 -17 -15 -14 -14 -14 -10 -7 -6 -7 -6 -5 -5 -7 -7 -8 -10 -10 -13 -16 -14 -13 -6 -10 -11 -11 -8 -5 1 -2 -11 -12 -13 -12